TimeCST,TemperatureF,Dew PointF,Humidity,Sea Level PressureIn,VisibilityMPH,Wind Direction,Wind SpeedMPH,Gust SpeedMPH,PrecipitationIn,Events,Conditions,WindDirDegrees,DateUTC
12:15 AM,46.4,37.4,71,29.95,10.0,South,17.3,23.0,N/A,,Mostly Cloudy,190,2013-01-27 06:15:00
12:35 AM,46.4,37.4,71,29.96,10.0,South,18.4,26.5,N/A,,Overcast,180,2013-01-27 06:35:00
12:55 AM,46.4,37.4,71,29.95,10.0,South,13.8,18.4,N/A,,Mostly Cloudy,190,2013-01-27 06:55:00
1:15 AM,46.4,41.0,81,29.93,10.0,South,18.4,23.0,N/A,,Scattered Clouds,180,2013-01-27 07:15:00
1:35 AM,46.4,41.0,81,29.92,10.0,South,15.0,19.6,N/A,,Mostly Cloudy,180,2013-01-27 07:35:00
1:55 AM,46.4,42.8,87,29.92,10.0,SSW,13.8,20.7,N/A,,Mostly Cloudy,200,2013-01-27 07:55:00
2:15 AM,46.4,42.8,87,29.92,10.0,SSW,10.4,16.1,N/A,,Overcast,210,2013-01-27 08:15:00
2:35 AM,46.4,42.8,87,29.92,10.0,SSW,12.7,-,N/A,,Overcast,200,2013-01-27 08:35:00
2:55 AM,48.2,42.8,82,29.91,7.0,SSW,11.5,18.4,N/A,,Overcast,200,2013-01-27 08:55:00
3:15 AM,48.2,44.6,87,29.88,7.0,South,24.2,28.8,N/A,,Overcast,180,2013-01-27 09:15:00
3:35 AM,48.2,44.6,87,29.88,5.0,South,20.7,27.6,N/A,,Overcast,190,2013-01-27 09:35:00
3:55 AM,48.2,44.6,87,29.88,5.0,South,18.4,29.9,N/A,,Overcast,190,2013-01-27 09:55:00
4:15 AM,48.2,44.6,87,29.88,5.0,South,18.4,26.5,N/A,,Overcast,190,2013-01-27 10:15:00
4:35 AM,50.0,46.4,87,29.87,5.0,South,19.6,-,N/A,,Overcast,190,2013-01-27 10:35:00
4:55 AM,50.0,46.4,87,29.86,5.0,SSW,18.4,23.0,N/A,,Overcast,200,2013-01-27 10:55:00
5:15 AM,50.0,46.4,87,29.86,4.0,SSW,15.0,23.0,N/A,,Overcast,200,2013-01-27 11:15:00
5:35 AM,50.0,48.2,94,29.86,4.0,SSW,17.3,23.0,N/A,,Overcast,210,2013-01-27 11:35:00
5:55 AM,51.8,48.2,88,29.85,4.0,SSW,21.9,28.8,N/A,,Overcast,200,2013-01-27 11:55:00
6:15 AM,51.8,50.0,94,29.84,4.0,South,21.9,29.9,N/A,,Overcast,190,2013-01-27 12:15:00
6:35 AM,51.8,50.0,94,29.84,3.0,South,23.0,28.8,N/A,,Overcast,190,2013-01-27 12:35:00
6:55 AM,51.8,50.0,94,29.85,3.0,South,19.6,25.3,N/A,,Overcast,190,2013-01-27 12:55:00
7:15 AM,51.8,50.0,94,29.85,2.5,SSW,16.1,27.6,N/A,,Overcast,200,2013-01-27 13:15:00
7:35 AM,51.8,50.0,94,29.85,2.5,South,21.9,27.6,N/A,,Overcast,190,2013-01-27 13:35:00
7:55 AM,51.8,50.0,94,29.84,2.0,South,24.2,28.8,N/A,,Overcast,190,2013-01-27 13:55:00
8:15 AM,51.8,50.0,94,29.84,3.0,SSW,23.0,29.9,N/A,,Overcast,200,2013-01-27 14:15:00
8:35 AM,53.6,51.8,94,29.85,3.0,SSW,19.6,27.6,N/A,,Overcast,200,2013-01-27 14:35:00
8:55 AM,53.6,51.8,94,29.85,4.0,South,23.0,29.9,N/A,,Overcast,190,2013-01-27 14:55:00
9:15 AM,53.6,51.8,94,29.85,4.0,SSW,21.9,31.1,N/A,,Overcast,200,2013-01-27 15:15:00
9:35 AM,55.4,51.8,88,29.85,7.0,South,21.9,33.4,N/A,,Overcast,190,2013-01-27 15:35:00
9:55 AM,55.4,51.8,88,29.84,10.0,South,25.3,29.9,N/A,,Overcast,190,2013-01-27 15:55:00
10:15 AM,57.2,51.8,82,29.85,10.0,SSW,21.9,33.4,N/A,,Overcast,200,2013-01-27 16:15:00
10:35 AM,59.0,51.8,77,29.84,10.0,South,25.3,29.9,N/A,,Mostly Cloudy,190,2013-01-27 16:35:00
10:55 AM,60.8,51.8,72,29.83,10.0,South,24.2,33.4,N/A,,Scattered Clouds,190,2013-01-27 16:55:00
11:15 AM,62.6,51.8,68,29.84,10.0,South,24.2,29.9,N/A,,Clear,190,2013-01-27 17:15:00
11:35 AM,62.6,51.8,68,29.82,10.0,South,19.6,26.5,N/A,,Clear,180,2013-01-27 17:35:00
11:55 AM,64.4,50.0,59,29.81,10.0,South,20.7,26.5,N/A,,Scattered Clouds,190,2013-01-27 17:55:00
12:15 PM,69.8,46.4,43,29.79,10.0,SSW,25.3,35.7,N/A,,Scattered Clouds,200,2013-01-27 18:15:00
12:35 PM,69.8,44.6,40,29.78,10.0,SSW,24.2,34.5,N/A,,Clear,200,2013-01-27 18:35:00
12:55 PM,71.6,41.0,33,29.78,10.0,SSW,28.8,33.4,N/A,,Clear,210,2013-01-27 18:55:00
1:15 PM,71.6,42.8,35,29.76,10.0,SSW,27.6,33.4,N/A,,Clear,210,2013-01-27 19:15:00
1:35 PM,73.4,42.8,33,29.75,10.0,SSW,23.0,29.9,N/A,,Clear,200,2013-01-27 19:35:00
1:55 PM,73.4,41.0,31,29.75,10.0,SW,24.2,33.4,N/A,,Clear,220,2013-01-27 19:55:00
2:15 PM,75.2,41.0,29,29.74,10.0,SSW,24.2,29.9,N/A,,Clear,200,2013-01-27 20:15:00
2:35 PM,77.0,39.2,26,29.73,10.0,SSW,23.0,32.2,N/A,,Clear,210,2013-01-27 20:35:00
2:55 PM,78.8,32.0,18,29.73,10.0,SW,23.0,31.1,N/A,,Clear,220,2013-01-27 20:55:00
3:15 PM,78.8,32.0,18,29.73,10.0,SSW,24.2,33.4,N/A,,Clear,200,2013-01-27 21:15:00
3:35 PM,78.8,32.0,18,29.74,10.0,SSW,24.2,32.2,N/A,,Clear,210,2013-01-27 21:35:00
3:55 PM,78.8,30.2,17,29.74,10.0,SW,23.0,31.1,N/A,,Clear,220,2013-01-27 21:55:00
4:15 PM,77.0,32.0,19,29.74,10.0,SW,24.2,31.1,N/A,,Clear,220,2013-01-27 22:15:00
4:35 PM,77.0,32.0,19,29.74,10.0,SW,23.0,31.1,N/A,,Clear,220,2013-01-27 22:35:00
4:55 PM,77.0,32.0,19,29.74,10.0,SW,19.6,26.5,N/A,,Clear,220,2013-01-27 22:55:00
5:15 PM,73.4,32.0,22,29.74,10.0,SSW,19.6,24.2,N/A,,Clear,210,2013-01-27 23:15:00
5:35 PM,71.6,33.8,25,29.75,10.0,SSW,15.0,24.2,N/A,,Clear,210,2013-01-27 23:35:00
5:55 PM,71.6,33.8,25,29.75,10.0,SSW,13.8,-,N/A,,Clear,200,2013-01-27 23:55:00
6:15 PM,69.8,33.8,27,29.76,10.0,SSW,13.8,-,N/A,,Clear,200,2013-01-28 00:15:00
6:35 PM,68.0,33.8,28,29.76,10.0,South,11.5,-,N/A,,Clear,190,2013-01-28 00:35:00
6:55 PM,64.4,33.8,32,29.77,10.0,South,11.5,-,N/A,,Clear,180,2013-01-28 00:55:00
7:15 PM,64.4,33.8,32,29.77,10.0,South,11.5,-,N/A,,Clear,190,2013-01-28 01:15:00
7:35 PM,64.4,33.8,32,29.78,10.0,South,11.5,-,N/A,,Clear,190,2013-01-28 01:35:00
7:55 PM,62.6,33.8,34,29.78,10.0,South,12.7,-,N/A,,Clear,190,2013-01-28 01:55:00
8:15 PM,62.6,33.8,34,29.79,10.0,South,12.7,-,N/A,,Clear,190,2013-01-28 02:15:00
8:35 PM,62.6,33.8,34,29.79,10.0,SSW,11.5,-,N/A,,Clear,210,2013-01-28 02:35:00
8:55 PM,60.8,33.8,36,29.79,10.0,SSW,12.7,-,N/A,,Clear,210,2013-01-28 02:55:00
9:15 PM,60.8,33.8,36,29.80,10.0,SSW,9.2,-,N/A,,Clear,210,2013-01-28 03:15:00
9:35 PM,60.8,33.8,36,29.80,10.0,SW,11.5,-,N/A,,Clear,220,2013-01-28 03:35:00
9:55 PM,59.0,33.8,39,29.81,10.0,SW,9.2,-,N/A,,Clear,230,2013-01-28 03:55:00
10:15 PM,57.2,33.8,41,29.81,10.0,SW,9.2,-,N/A,,Clear,220,2013-01-28 04:15:00
10:55 PM,57.2,33.8,41,29.81,10.0,SSW,10.4,-,N/A,,Clear,210,2013-01-28 04:55:00
11:15 PM,55.4,33.8,44,29.82,10.0,SW,9.2,-,N/A,,Clear,220,2013-01-28 05:15:00
11:35 PM,53.6,33.8,47,29.82,10.0,SSW,9.2,-,N/A,,Clear,210,2013-01-28 05:35:00
11:55 PM,53.6,33.8,47,29.82,10.0,SW,9.2,-,N/A,,Clear,220,2013-01-28 05:55:00